This is the latest recevied weather packets stored in our database for station/object SV7RNH. If no packets are shown the sender has not sent any weather packets the latest 10 day(s).
| Time | Temp. | Humidity | Pressure | Rain* | Wind** | Luminosity | Snow |
|---|---|---|---|---|---|---|---|
| 1777677003 | 9.44° C | 73% | 1024.7 hPa | 0 mm | - | - | - |
| 1777676703 | 9.44° C | 73% | 1024.8 hPa | 0 mm | - | - | - |
| 1777676404 | 8.89° C | 73% | 1024.8 hPa | 0 mm | - | - | - |
| 1777676103 | 9.44° C | 73% | 1024.9 hPa | 0 mm | - | - | - |
| 1777675803 | 8.89° C | 73% | 1025 hPa | 0 mm | - | - | - |
| 1777675504 | 9.44° C | 73% | 1025 hPa | 0 mm | - | - | - |
| 1777675204 | 8.89° C | 73% | 1025.1 hPa | 0 mm | - | - | - |
| 1777674904 | 8.89° C | 72% | 1025.2 hPa | 0 mm | - | - | - |
| 1777674604 | 8.89° C | 72% | 1025.1 hPa | 0.25 mm | - | - | - |
| 1777674305 | 9.44° C | 72% | 1025.2 hPa | 1.02 mm | - | - | - |
| 1777674005 | 8.89° C | 72% | 1025.2 hPa | 2.03 mm | - | - | - |
| 1777673704 | 8.89° C | 71% | 1025.3 hPa | 2.29 mm | - | - | - |
| 1777673403 | 8.89° C | 71% | 1025.4 hPa | 2.29 mm | - | - | - |
| 1777673104 | 9.44° C | 71% | 1025.5 hPa | 2.29 mm | - | - | - |
| 1777672804 | 9.44° C | 70% | 1025.4 hPa | 2.29 mm | - | - | - |
| 1777672503 | 9.44° C | 70% | 1025.3 hPa | 2.29 mm | - | - | - |
| 1777672204 | 9.44° C | 69% | 1025.7 hPa | 2.29 mm | - | - | - |
| 1777671903 | 9.44° C | 69% | 1025.4 hPa | 2.29 mm | - | - | - |
| 1777671603 | 8.89° C | 68% | 1025.3 hPa | 2.29 mm | - | - | - |
| 1777671304 | 9.44° C | 67% | 1025.2 hPa | 2.29 mm | - | - | - |
| 1777671003 | 9.44° C | 66% | 1025.3 hPa | 2.03 mm | - | - | - |
| 1777670704 | 10° C | 65% | 1025.3 hPa | 1.52 mm | - | - | - |
| 1777670404 | 10.56° C | 66% | 1025.5 hPa | 0.25 mm | - | - | - |
| 1777670103 | 11.11° C | 67% | 1025.3 hPa | 0 mm | - | - | - |
| 1777669804 | 11.11° C | 67% | 1025.1 hPa | 0 mm | - | - | - |
* Rain latest hour (hover to see other rain measurements)
** Current wind speed in m/s (hover to see current wind gust speed)